Regional Weather Roundup
Issued by NWS Little Rock, AR

Home | Current Version | Previous Version | Graphics & Text | Print | Product List | Glossary On
Versions: 1 2 3 4 5 6 7 8 9 10 11 12 13 14 15 16 17 18 19 20 21 22 23 24 25 26 27 28 29 30 31 32 33 34 35 36 37 38 39 40 41 42 43 44 45 46 47 48 49 50
000
ASUS44 KLZK 191505
RWRLZK

WEATHER ROUNDUP FOR ARKANSAS
NATIONAL WEATHER SERVICE LITTLE ROCK AR
900 AM CST FRI DEC 19 2014

NOTE: "FAIR" INDICATES FEW OR NO CLOUDS BELOW 12,000 FEET WITH NO
SIGNIFICANT WEATHER AND/OR OBSTRUCTIONS TO VISIBILITY.

ARZ001-003-010-029-191600-
NORTHWEST ARKANSAS

CITY           SKY/WX    TMP DP  RH WIND       PRES   REMARKS
FAYETTEVILLE   FOG       40  40 100 CALM      30.23R VSB 1/4
FORT SMITH     CLOUDY    42  38  85 E8        30.25R FOG
HARRISON       FOG       36  36 100 E6        30.23F VSB 1/4
BENTONVILLE    CLOUDY    39  36  87 CALM      30.24R
ROGERS         CLOUDY    39  37  92 CALM      30.24R
SILOAM SPGS    CLOUDY    39  36  87 CALM      30.25R VSB<1/4
HIGHFILL       FOG       40  39  97 E3        30.23R VSB 1/4
$$

ARZ004-005-016-191600-
NORTH CENTRAL ARKANSAS

CITY           SKY/WX    TMP DP  RH WIND       PRES   REMARKS
BATESVILLE     CLOUDY    37  34  87 E6        30.29R
FLIPPIN        CLOUDY    37  34  87 E5        30.26S
MTN HOME       CLOUDY    37  36  96 SE5       30.26S FOG
$$

ARZ040-041-191600-
WEST CENTRAL ARKANSAS

CITY           SKY/WX    TMP DP  RH WIND       PRES   REMARKS
MENA           CLOUDY    43  41  93 E5        30.22R
MOUNT IDA      CLOUDY    41  39  93 CALM      30.21S FOG
$$

ARZ009-017-025-026-028-191600-
NORTHEAST ARKANSAS

CITY           SKY/WX    TMP DP  RH WIND       PRES   REMARKS
JONESBORO      CLOUDY    37  33  85 NE14      30.28F
NEWPORT        CLOUDY    38  36  92 NE14      30.30S FOG
WALNUT RIDGE   CLOUDY    37  30  75 NE9       30.29F
BLYTHEVILLE    CLOUDY    38  32  79 NE8       30.31R
NW BLYTHEVILLE CLOUDY    37  32  81 NE8       30.31R
$$

ARZ022-023-033-042-044-191600-
CENTRAL ARKANSAS

CITY           SKY/WX    TMP DP  RH WIND       PRES   REMARKS
LITTLE ROCK    CLOUDY    42  37  82 NE8       30.27R FOG
N LITTLE ROCK  CLOUDY    40  39  98 NE9       30.27R
JACKSONVILLE   CLOUDY    41  38  89 NE7       30.27R
SEARCY         CLOUDY    40  37  89 NE8       30.31R
HOT SPRINGS    CLOUDY    41  39  93 CALM      30.25S
RUSSELLVILLE   CLOUDY    42  38  85 CALM      30.27R FOG
CLINTON        CLOUDY    39  37  93 CALM      30.29R FOG
$$

ARZ036-191600-
EAST ARKANSAS

CITY           SKY/WX    TMP DP  RH WIND       PRES   REMARKS
WEST MEMPHIS   CLOUDY    41  36  82 E9        30.26S
$$

ARZ050-053-066-070-073-191600-
SOUTHWEST ARKANSAS

CITY           SKY/WX    TMP DP  RH WIND       PRES   REMARKS
ARKADELPHIA    CLOUDY    42  42 100 NE3       30.27R FOG
CAMDEN         CLOUDY    45  39  81 MISG      30.23S FOG
TEXARKANA      CLOUDY    42  41  96 NE8       30.24R FOG
EL DORADO      CLOUDY    44  40  85 NE8       30.22R
DE QUEEN       CLOUDY    43  42  97 E6        30.21R FOG
$$

ARZ056-057-069-191600-
SOUTHEAST ARKANSAS

CITY           SKY/WX    TMP DP  RH WIND       PRES   REMARKS
PINE BLUFF     CLOUDY    42  39  89 NE8       30.27R
STUTTGART      CLOUDY    43  37  81 NE12      30.27R
MONTICELLO     CLOUDY    44  40  85 NE8       30.23R

$$




USA.gov is the U.S. government's official web portal to all federal, state and local government web resources and services.